Home   Weather   Monheim am Rhein   Past weeks

Flag for Germany Past Weather in Monheim am Rhein, North Rhine-Westphalia, Germany — Yesterday and Last 2 Weeks

Now
50 °F

Light rain. Partly sunny.


Feels Like: 46 °F
Forecast: 36 / 47 °F
Wind: 9 mph from South

Location: Duesseldorf

Current Time: Dec 9, 2016 at 12:48:12 pm

Latest Report: Dec 9, 2016 at 12:20 pm


Visibility: 6 mi

Pressure: 30.39 "Hg

Humidity: 88%

Dew Point: 46 °F

Location of Monheim am RheinLocation

Past Weather in Monheim am Rhein — Graph

°F

Monheim am Rhein Temperature Yesterday

Maximum temperature yesterday: 48 °F (at 1:20 pm)
Minimum temperature yesterday: 39 °F (at 2:50 am)
Average temperature yesterday: 43 °F

High & Low Weather Summary for the Past Weeks

 TemperatureHumidityPressure
High50 °F (Nov 24, 11:50 am)100% (Nov 26, 8:50 pm)30.60 "Hg (Nov 26, 8:50 pm)
Low18 °F (Dec 4, 7:50 am)45% (Nov 29, 2:50 pm)30.07 "Hg (Nov 26, 1:50 pm)
Average37 °F83%30.32 "Hg
* Reported Nov 24 11:20 am — Dec 9 11:20 am, Monheim am Rhein, Weather by CustomWeather, © 2016

Note: Actual official high and low records may vary slightly from our data, if they occured in-between our weather recording intervals... More about our weather records

Advertising

Monheim am Rhein Weather History for the Previous 24 Hours

Scroll right to see more
 ConditionsComfort  
Time TempWeatherWind HumidityBarometerVisibility
11:20 am
Fri, Dec 9
48 °FPartly sunny.7 mph94%30.39 "Hg4 mi
10:50 am48 °FPartly sunny.8 mph94%30.39 "Hg4 mi
10:20 am48 °FPartly sunny.8 mph87%30.39 "Hg5 mi
9:50 am48 °FPartly sunny.8 mph87%30.39 "Hg6 mi
9:20 am48 °FPartly sunny.12 mph87%30.39 "HgN/A
8:50 am46 °FPartly sunny.9 mph93%30.39 "Hg6 mi
8:20 am46 °FPassing clouds.10 mph93%30.39 "Hg6 mi
7:50 am46 °FPassing clouds.9 mph87%30.36 "HgN/A
7:20 am46 °FPassing clouds.9 mph87%30.36 "HgN/A
6:50 am46 °FPassing clouds.9 mph87%30.36 "HgN/A
6:20 am46 °FPassing clouds.10 mph87%30.36 "HgN/A
5:20 am48 °FPassing clouds.13 mph82%30.36 "HgN/A
4:50 am46 °FPassing clouds.12 mph87%30.36 "HgN/A
4:20 am46 °FPartly cloudy.10 mph87%30.36 "HgN/A
3:50 am46 °FPassing clouds.12 mph87%30.36 "HgN/A
3:20 am46 °FPassing clouds.15 mph87%30.36 "HgN/A
2:50 am46 °FPassing clouds.10 mph87%30.36 "HgN/A
2:20 am45 °FPassing clouds.8 mph87%30.36 "HgN/A
1:50 am45 °FPassing clouds.8 mph87%30.36 "HgN/A
1:20 am45 °FPartly cloudy.10 mph87%30.36 "HgN/A
12:50 am45 °FPassing clouds.10 mph87%30.36 "HgN/A
12:20 am45 °FPassing clouds.9 mph87%30.36 "HgN/A
11:50 pm
Thu, Dec 8
43 °FPassing clouds.9 mph87%30.36 "HgN/A
11:20 pm43 °FLight rain. Passing clouds.13 mph87%30.36 "HgN/A
10:50 pm43 °FPassing clouds.10 mph81%30.36 "HgN/A
10:20 pm43 °FPassing clouds.10 mph76%30.36 "HgN/A
9:50 pm43 °FLight rain. Partly cloudy.8 mph76%30.36 "HgN/A
9:20 pm43 °FLight rain. Partly cloudy.13 mph71%30.36 "HgN/A
8:50 pm43 °FPartly cloudy.14 mph71%30.36 "HgN/A
8:20 pm43 °FPassing clouds.10 mph71%30.36 "HgN/A
7:50 pm43 °FClear.12 mph71%30.33 "Hg10 mi
7:20 pm43 °FClear.14 mph71%30.33 "Hg10 mi
6:50 pm43 °FClear.10 mph71%30.36 "Hg10 mi
6:20 pm43 °FClear.14 mph71%30.33 "Hg10 mi
5:50 pm43 °FClear.13 mph76%30.33 "Hg10 mi
5:20 pm43 °FClear.13 mph71%30.33 "Hg10 mi
4:50 pm45 °FClear.14 mph66%30.33 "Hg10 mi
4:20 pm45 °FSunny.10 mph66%30.36 "Hg10 mi
3:50 pm46 °FSunny.12 mph66%30.33 "Hg10 mi
3:20 pm46 °FSunny.10 mph62%30.33 "Hg10 mi
2:50 pm48 °FPassing clouds.12 mph58%30.36 "HgN/A
2:20 pm46 °FSunny.12 mph62%30.36 "Hg10 mi
1:50 pm46 °FSunny.12 mph62%30.36 "Hg10 mi
1:20 pm48 °FSunny.13 mph58%30.36 "Hg10 mi
12:50 pm46 °FSunny.14 mph62%30.36 "Hg10 mi
12:20 pm46 °FSunny.12 mph62%30.39 "Hg10 mi
Weather by CustomWeather, © 2016

See weather overviewHow to use our weather pages